Location: Étang Rond
(42.7927°N, 1.0661°E)
Time: 21:45:17
(UTC+00:00)

Cosmos 2322 Rocket - Pass Details

Date: 08 November 2025
Orbit: 830 x 851 km, 71.0° (Epoch: 12 December)

Event Time Altitude Azimuth Distance (km) Brightness Sun altitude
Exits shadow 03:59:39 19° 358° (N) 1,918 4.0 -29.4°
Drops below altitude 10° 04:01:26 10° 9° (N) 2,477 4.7 -29.1°
Sets 04:04:07 0° 19° (NNE) 3,419 5.6 -28.6°
